• In Hungary
  • List of Countries
  • For 7 days
  • Water Temperature
  • Satellite Maps
  • Weather Map
  • News
  • Weather Widgets
  • user-avatar
    Login

    Hourly Weather Prokshino

    Today, 22 July, Sunday

    Time Temperature Precipitation Wind Pressure Humidity
    00:00 +20°C° 0 mm 1 mps 738 mmHg 94%
    01:00 +19°C° 0 mm 1 mps 738 mmHg 95%
    02:00 +19°C° 0 mm 1 mps 737 mmHg 96%
    03:00 +19°C° 0 mm 1 mps 737 mmHg 96%
    04:00 +18°C° 0 mm 2 mps 738 mmHg 96%
    05:00 +18°C° 0 mm 2 mps 738 mmHg 96%
    06:00 +20°C° 0.2 mm 2 mps 738 mmHg 94%
    07:00 +21°C° 0.2 mm 3 mps 738 mmHg 92%
    08:00 +22°C° 0.2 mm 3 mps 738 mmHg 89%
    09:00 +22°C° 0.6 mm 3 mps 738 mmHg 88%
    10:00 +23°C° 0.6 mm 4 mps 737 mmHg 87%
    11:00 +23°C° 0.6 mm 4 mps 737 mmHg 86%
    12:00 +23°C° 0.3 mm 4 mps 737 mmHg 86%
    13:00 +23°C° 0.3 mm 4 mps 737 mmHg 86%
    14:00 +25°C° 0 mm 4 mps 737 mmHg 81%
    15:00 +25°C° 0.5 mm 4 mps 737 mmHg 82%
    16:00 +25°C° 0.5 mm 4 mps 737 mmHg 83%
    17:00 +25°C° 0.5 mm 4 mps 737 mmHg 84%
    18:00 +24°C° 0.2 mm 3 mps 737 mmHg 88%
    19:00 +22°C° 0.2 mm 3 mps 737 mmHg 92%
    20:00 +21°C° 0.2 mm 3 mps 737 mmHg 96%
    21:00 +20°C° 0.1 mm 3 mps 737 mmHg 96%
    22:00 +20°C° 0.1 mm 3 mps 737 mmHg 97%
    23:00 +19°C° 0.1 mm 3 mps 737 mmHg 97%

    Tomorrow, 23 July, Monday

    Time Temperature Precipitation Wind Pressure Humidity
    00:00 +19°C° 0 mm 3 mps 737 mmHg 98%
    01:00 +19°C° 0 mm 3 mps 737 mmHg 98%
    02:00 +18°C° 0 mm 3 mps 737 mmHg 98%
    03:00 +18°C° 0 mm 3 mps 737 mmHg 98%
    04:00 +18°C° 0 mm 3 mps 737 mmHg 98%
    05:00 +18°C° 0 mm 3 mps 737 mmHg 98%
    06:00 +19°C° 0 mm 4 mps 738 mmHg 96%
    07:00 +19°C° 0 mm 4 mps 738 mmHg 95%
    08:00 +20°C° 0 mm 4 mps 738 mmHg 94%
    09:00 +20°C° 0 mm 4 mps 738 mmHg 91%
    10:00 +21°C° 0 mm 4 mps 738 mmHg 89%
    11:00 +21°C° 0 mm 4 mps 738 mmHg 87%
    12:00 +22°C° 0 mm 4 mps 738 mmHg 84%
    13:00 +22°C° 0 mm 4 mps 738 mmHg 81%
    14:00 +23°C° 0 mm 4 mps 738 mmHg 79%
    15:00 +23°C° 0.1 mm 4 mps 738 mmHg 80%
    16:00 +23°C° 0.1 mm 4 mps 738 mmHg 81%
    17:00 +22°C° 0.1 mm 4 mps 738 mmHg 83%
    18:00 +21°C° 0.1 mm 4 mps 738 mmHg 86%
    19:00 +20°C° 0.1 mm 3 mps 738 mmHg 89%
    20:00 +19°C° 0.1 mm 3 mps 739 mmHg 92%
    21:00 +19°C° 0 mm 3 mps 739 mmHg 93%
    22:00 +18°C° 0 mm 3 mps 739 mmHg 94%
    23:00 +18°C° 0 mm 3 mps 739 mmHg 95%

    Day after tomorrow, 24 July, Tuesday

    Time Temperature Precipitation Wind Pressure Humidity
    00:00 +18°C° 0 mm 3 mps 739 mmHg 95%
    01:00 +18°C° 0 mm 4 mps 738 mmHg 95%
    02:00 +18°C° 0 mm 4 mps 738 mmHg 95%
    03:00 +18°C° 0 mm 4 mps 738 mmHg 95%
    04:00 +19°C° 0 mm 4 mps 739 mmHg 94%
    05:00 +19°C° 0 mm 4 mps 739 mmHg 94%
    06:00 +19°C° 0.1 mm 4 mps 739 mmHg 93%
    07:00 +19°C° 0.1 mm 4 mps 739 mmHg 93%
    08:00 +20°C° 0.1 mm 3 mps 739 mmHg 92%
    09:00 +20°C° 0.1 mm 3 mps 739 mmHg 90%
    10:00 +21°C° 0.1 mm 3 mps 739 mmHg 88%
    11:00 +22°C° 0.1 mm 3 mps 740 mmHg 86%
    12:00 +24°C° 0.6 mm 3 mps 739 mmHg 86%
    13:00 +23°C° 0.6 mm 4 mps 739 mmHg 85%
    14:00 +25°C° 0.6 mm 4 mps 739 mmHg 85%
    15:00 +25°C° 0.7 mm 3 mps 739 mmHg 86%
    16:00 +25°C° 0.7 mm 3 mps 739 mmHg 87%
    17:00 +25°C° 0.7 mm 3 mps 739 mmHg 88%
    18:00 +24°C° 0.2 mm 3 mps 740 mmHg 90%
    19:00 +22°C° 0.2 mm 3 mps 740 mmHg 92%
    20:00 +21°C° 0.2 mm 3 mps 740 mmHg 94%
    21:00 +21°C° 0 mm 2 mps 740 mmHg 94%
    22:00 +20°C° 0 mm 2 mps 740 mmHg 95%
    23:00 +20°C° 0 mm 2 mps 740 mmHg 96%

    25 July, Wednesday

    Time Temperature Precipitation Wind Pressure Humidity
    00:00 +19°C° 0 mm 2 mps 740 mmHg 96%
    01:00 +19°C° 0 mm 2 mps 741 mmHg 96%
    02:00 +19°C° 0 mm 2 mps 741 mmHg 96%
    03:00 +18°C° 0 mm 2 mps 741 mmHg 97%
    04:00 +18°C° 0 mm 2 mps 741 mmHg 97%
    05:00 +18°C° 0 mm 2 mps 741 mmHg 97%
    06:00 +20°C° 0 mm 3 mps 741 mmHg 94%
    07:00 +21°C° 0 mm 3 mps 741 mmHg 91%
    08:00 +22°C° 0 mm 3 mps 742 mmHg 88%
    09:00 +23°C° 0.1 mm 4 mps 742 mmHg 83%
    10:00 +23°C° 0.1 mm 5 mps 742 mmHg 79%
    11:00 +25°C° 0.1 mm 5 mps 742 mmHg 74%
    12:00 +23°C° 0.1 mm 5 mps 742 mmHg 77%
    13:00 +22°C° 0.1 mm 5 mps 741 mmHg 79%
    14:00 +21°C° 0.1 mm 5 mps 741 mmHg 82%
    15:00 +21°C° 0.1 mm 4 mps 741 mmHg 84%
    16:00 +20°C° 0.1 mm 4 mps 741 mmHg 87%
    17:00 +20°C° 0.1 mm 3 mps 741 mmHg 89%
    18:00 +20°C° 0.1 mm 3 mps 741 mmHg 91%
    19:00 +19°C° 0.1 mm 2 mps 741 mmHg 94%
    20:00 +19°C° 0.1 mm 2 mps 741 mmHg 96%
    21:00 +19°C° 0 mm 1 mps 741 mmHg 96%
    22:00 +19°C° 0 mm 1 mps 741 mmHg 97%
    23:00 +19°C° 0 mm 1 mps 741 mmHg 97%

    26 July, Thursday

    Time Temperature Precipitation Wind Pressure Humidity
    00:00 +19°C° 0 mm 1 mps 741 mmHg 98%
    01:00 +19°C° 0 mm 1 mps 741 mmHg 98%
    02:00 +19°C° 0 mm 1 mps 742 mmHg 98%
    03:00 +19°C° 0.1 mm 1 mps 742 mmHg 98%
    04:00 +19°C° 0.1 mm 1 mps 742 mmHg 98%
    05:00 +18°C° 0.1 mm 2 mps 742 mmHg 98%
    06:00 +19°C° 0 mm 2 mps 743 mmHg 95%
    07:00 +20°C° 0 mm 2 mps 743 mmHg 92%
    08:00 +21°C° 0 mm 2 mps 743 mmHg 88%
    09:00 +24°C° 0 mm 2 mps 743 mmHg 83%
    10:00 +26°C° 0 mm 2 mps 744 mmHg 77%
    11:00 +27°C° 0 mm 2 mps 744 mmHg 71%
    12:00 +28°C° 0 mm 2 mps 744 mmHg 69%
    13:00 +29°C° 0 mm 2 mps 744 mmHg 66%
    14:00 +29°C° 0 mm 2 mps 744 mmHg 64%
    15:00 +29°C° 0.1 mm 2 mps 744 mmHg 67%
    16:00 +29°C° 0.1 mm 2 mps 744 mmHg 69%
    17:00 +29°C° 0.1 mm 3 mps 744 mmHg 72%
    18:00 +27°C° 0 mm 2 mps 744 mmHg 78%
    19:00 +26°C° 0 mm 2 mps 744 mmHg 83%
    20:00 +24°C° 0 mm 2 mps 744 mmHg 89%
    21:00 +23°C° 0 mm 2 mps 744 mmHg 91%
    22:00 +23°C° 0 mm 2 mps 744 mmHg 92%
    23:00 +21°C° 0 mm 2 mps 745 mmHg 94%

    27 July, Friday

    Time Temperature Precipitation Wind Pressure Humidity
    00:00 +21°C° 0 mm 2 mps 745 mmHg 95%
    01:00 +20°C° 0 mm 2 mps 745 mmHg 96%
    02:00 +20°C° 0 mm 2 mps 745 mmHg 96%
    03:00 +20°C° 0.1 mm 3 mps 745 mmHg 96%
    04:00 +20°C° 0.1 mm 3 mps 745 mmHg 95%
    05:00 +20°C° 0.1 mm 3 mps 745 mmHg 95%
    06:00 +21°C° 0 mm 3 mps 745 mmHg 90%
    07:00 +22°C° 0 mm 4 mps 746 mmHg 85%
    08:00 +25°C° 0 mm 4 mps 746 mmHg 80%
    09:00 +26°C° 0 mm 4 mps 746 mmHg 75%
    10:00 +27°C° 0 mm 4 mps 746 mmHg 70%
    11:00 +29°C° 0 mm 4 mps 746 mmHg 66%
    12:00 +30°C° 0 mm 4 mps 746 mmHg 63%
    13:00 +30°C° 0 mm 4 mps 746 mmHg 61%
    14:00 +32°C° 0 mm 4 mps 746 mmHg 58%
    15:00 +32°C° 0 mm 4 mps 746 mmHg 60%
    16:00 +30°C° 0 mm 4 mps 746 mmHg 62%
    17:00 +30°C° 0 mm 4 mps 746 mmHg 64%
    18:00 +28°C° 0 mm 3 mps 747 mmHg 68%
    19:00 +27°C° 0 mm 3 mps 747 mmHg 72%
    20:00 +25°C° 0 mm 3 mps 747 mmHg 77%
    21:00 +24°C° 0 mm 3 mps 747 mmHg 80%
    22:00 +22°C° 0 mm 3 mps 747 mmHg 83%
    23:00 +21°C° 0 mm 3 mps 747 mmHg 87%
    Show more